(203319) = 2001 TH68

Discovered at Socorro on 2001-10-13 by LINEAR.

Orbit

Orbit type: Main Belt

Note: WebGL enabled browser required.

epoch2023-09-13.0
epoch JD2460200.5
perihelion date2021-01-13.48712
perihelion JD2459227.98712
argument of perihelion (°)261.90375
ascending node (°)58.47092
inclination (°)5.59280
eccentricity0.1730121
perihelion distance (AU)1.8311542
Tisserand w.r.t. Jupiter3.6
ΔV w.r.t. Earth (km/sec)8.5
semimajor axis (AU)2.2142456
mean anomaly (°)290.91125
mean daily motion (°/day)0.29913360
aphelion distance (AU)2.597
period (years)3.29
P-vector [x]0.76621426
P-vector [y]-0.54449620
P-vector [z]-0.34123248
Q-vector [x]0.63719305
Q-vector [y]0.71245491
Q-vector [z]0.29392691
absolute magnitude16.72
phase slope0.15
uncertainty0
referenceMPEC 2023-P27
observations used715
oppositions16
arc length (days)8493
first opposition used2000
last opposition used2023
residual rms (arc-secs)0.71
perturbers coarse indicatorM-v
perturbers precise indicator003Ek
first observation date used2000-05-05.0
last observation date used2023-08-06.0
computer nameMPCLINUX
JD of orbit computation2456966.871368
perihelion JD uncertainty (days)3.7913E-05
argument of perihelion uncertainty (°)3.6712E-05
ascending node uncertainty (°)3.4865E-05
inclination uncertainty (°)3.8687E-06
eccentricity uncertainty 3.0061E-08
perihelion distance uncertainty (AU)6.6203E-08
Minimum Orbit Intersection Distances (in AU)
for orbit epoch: 2460200.5, reference: E2023-P27
Mercury1.4059
Venus1.10413
Earth0.82804
Mars0.45157
Jupiter2.69799
Saturn6.55927
Uranus15.8866
Neptune27.6271

Observations

738 total observations over interval: 2000 05 05.303150 – 2023 08 06.276951
These data are available for download (format description).

Date (UT) J2000 RA J2000 Dec Magn Location Ref
2000 05 05.303150 12 25 54.502 +03 06 20.93 20.33 V 645 – Apache Point-Sloan Digital Sky Survey MPS 112136
2000 05 05.306622 12 25 54.385 +03 06 20.88 21.16   645 – Apache Point-Sloan Digital Sky Survey MPS 112136
2001 10 13.25868 03 08 51.94 +13 22 36.8 18.9   704 – Lincoln Laboratory ETS, New Mexico MPS 39466
2001 10 13.27431 03 08 51.11 +13 22 36.4 19.5   704 – Lincoln Laboratory ETS, New Mexico MPS 39466
2001 10 13.29008 03 08 50.29 +13 22 35.2 19.5   704 – Lincoln Laboratory ETS, New Mexico MPS 39466
2001 10 13.30597 03 08 49.42 +13 22 33.7 19.6   704 – Lincoln Laboratory ETS, New Mexico MPS 39466
2001 10 13.32169 03 08 48.68 +13 22 32.1 20.0   704 – Lincoln Laboratory ETS, New Mexico MPS 39466
2001 10 17.32331 03 05 15.98 +13 18 27.1 19.2   704 – Lincoln Laboratory ETS, New Mexico MPS 39466
2001 10 17.33920 03 05 15.01 +13 18 25.9 19.7   704 – Lincoln Laboratory ETS, New Mexico MPS 39466
2001 10 17.35519 03 05 14.02 +13 18 25.6 19.8   704 – Lincoln Laboratory ETS, New Mexico MPS 39466
2001 10 17.37108 03 05 13.09 +13 18 24.6 19.2   704 – Lincoln Laboratory ETS, New Mexico MPS 39466
2001 10 17.38701 03 05 12.17 +13 18 23.4 19.1   704 – Lincoln Laboratory ETS, New Mexico MPS 39466
2001 10 18.46336 03 04 10.22 +13 17 07.2 18.8   644 – Palomar Mountain/NEAT MPS 44199
2001 10 18.47388 03 04 09.58 +13 17 06.6 18.7   644 – Palomar Mountain/NEAT MPS 44199
2001 10 18.48455 03 04 08.94 +13 17 05.7 19.0   644 – Palomar Mountain/NEAT MPS 44199
2001 10 20.35121 03 02 17.76 +13 14 43.2 19.3   704 – Lincoln Laboratory ETS, New Mexico MPS 40806
2001 10 20.38391 03 02 15.66 +13 14 40.2 19.3   704 – Lincoln Laboratory ETS, New Mexico MPS 40806
2001 10 20.40028 03 02 14.61 +13 14 37.6 19.4   704 – Lincoln Laboratory ETS, New Mexico MPS 40806
2001 10 20.41682 03 02 13.51 +13 14 37.2 19.4   704 – Lincoln Laboratory ETS, New Mexico MPS 40806
2001 10 22.31075 03 00 15.85 +13 12 03.6 18.9   704 – Lincoln Laboratory ETS, New Mexico MPS 40806
2001 10 22.32822 03 00 14.72 +13 12 02.8 19.2   704 – Lincoln Laboratory ETS, New Mexico MPS 40806
2001 10 22.34462 03 00 13.65 +13 12 01.0 19.0   704 – Lincoln Laboratory ETS, New Mexico MPS 40806
2001 10 22.36132 03 00 12.52 +13 12 00.0 19.0   704 – Lincoln Laboratory ETS, New Mexico MPS 40806
2001 10 23.34485 02 59 09.56 +13 10 33.8 18.5   704 – Lincoln Laboratory ETS, New Mexico MPS 40806
2001 10 23.36124 02 59 08.47 +13 10 32.3 18.9   704 – Lincoln Laboratory ETS, New Mexico MPS 40806
2001 10 23.37764 02 59 07.36 +13 10 31.6 18.5   704 – Lincoln Laboratory ETS, New Mexico MPS 40806
2001 10 23.39404 02 59 06.25 +13 10 29.7 18.4   704 – Lincoln Laboratory ETS, New Mexico MPS 40806
2001 10 23.41114 02 59 05.06 +13 10 28.6 19.2   704 – Lincoln Laboratory ETS, New Mexico MPS 40806
2001 10 24.32980 02 58 05.51 +13 09 07.9 18.2   704 – Lincoln Laboratory ETS, New Mexico MPS 40806
2001 10 24.34618 02 58 04.37 +13 09 06.6 18.4   704 – Lincoln Laboratory ETS, New Mexico MPS 40806
2001 10 24.36258 02 58 03.25 +13 09 05.1 19.1   704 – Lincoln Laboratory ETS, New Mexico MPS 40806
2001 10 24.37896 02 58 02.15 +13 09 04.0 19.0   704 – Lincoln Laboratory ETS, New Mexico MPS 40806
2001 10 24.39535 02 58 01.02 +13 09 02.5 18.8   704 – Lincoln Laboratory ETS, New Mexico MPS 40806
2001 11 09.29101 02 39 44.57 +12 44 57.6 18.9   704 – Lincoln Laboratory ETS, New Mexico MPS 40806
2001 11 09.30546 02 39 43.55 +12 44 56.4 18.9   704 – Lincoln Laboratory ETS, New Mexico MPS 40806
2001 11 09.32002 02 39 42.54 +12 44 55.1 18.9   704 – Lincoln Laboratory ETS, New Mexico MPS 40806
2001 11 09.33448 02 39 41.47 +12 44 54.2 18.8   704 – Lincoln Laboratory ETS, New Mexico MPS 40806
2001 11 09.34897 02 39 40.44 +12 44 53.1 19.0   704 – Lincoln Laboratory ETS, New Mexico MPS 40806
2001 11 12.20881 02 36 29.32 +12 41 15.8 18.7   704 – Lincoln Laboratory ETS, New Mexico MPS 40806
2001 11 12.22319 02 36 28.34 +12 41 14.9 19.2   704 – Lincoln Laboratory ETS, New Mexico MPS 40806
2001 11 12.23755 02 36 27.37 +12 41 14.2 19.1   704 – Lincoln Laboratory ETS, New Mexico MPS 40806
2001 11 12.25191 02 36 26.37 +12 41 13.1 19.1   704 – Lincoln Laboratory ETS, New Mexico MPS 40806
2001 11 12.26628 02 36 25.41 +12 41 12.4 18.8   704 – Lincoln Laboratory ETS, New Mexico MPS 40806
2001 11 16.28413 02 32 10.15 +12 37 02.5 19.1   644 – Palomar Mountain/NEAT MPS 42015
2001 11 16.30552 02 32 08.81 +12 37 01.5 19.1   644 – Palomar Mountain/NEAT MPS 42015
2001 11 16.32679 02 32 07.42 +12 37 00.3 18.8   644 – Palomar Mountain/NEAT MPS 42015
2001 11 17.22285 02 31 13.40 +12 36 14.6 19.5   704 – Lincoln Laboratory ETS, New Mexico MPS 42015
2001 11 17.23720 02 31 12.47 +12 36 14.0 19.5   704 – Lincoln Laboratory ETS, New Mexico MPS 42015
2001 11 17.26596 02 31 10.72 +12 36 13.6 19.9   704 – Lincoln Laboratory ETS, New Mexico MPS 42015
2001 11 20.21623 02 28 20.54 +12 34 17.5 18.7   704 – Lincoln Laboratory ETS, New Mexico MPS 44199
2001 11 20.23091 02 28 19.71 +12 34 17.3 19.1   704 – Lincoln Laboratory ETS, New Mexico MPS 44199
2001 11 20.24580 02 28 18.83 +12 34 16.7 19.2   704 – Lincoln Laboratory ETS, New Mexico MPS 44199
2001 11 20.26049 02 28 17.95 +12 34 16.3 19.1   704 – Lincoln Laboratory ETS, New Mexico MPS 44199
2001 11 20.27054 02 28 17.45 +12 34 16.6 19.6 V 691 – Steward Observatory, Kitt Peak-Spacewatch MPS 44199
2001 11 20.27519 02 28 17.13 +12 34 15.6 19.1   704 – Lincoln Laboratory ETS, New Mexico MPS 44199
2001 11 20.29222 02 28 16.19 +12 34 15.8 19.5 V 691 – Steward Observatory, Kitt Peak-Spacewatch MPS 44199
2001 11 20.31476 02 28 14.89 +12 34 15.2 19.4 V 691 – Steward Observatory, Kitt Peak-Spacewatch MPS 44199
2001 11 21.15776 02 27 29.17 +12 33 52.0 18.9   704 – Lincoln Laboratory ETS, New Mexico MPS 49561
2001 11 21.17237 02 27 28.34 +12 33 51.5 19.1   704 – Lincoln Laboratory ETS, New Mexico MPS 49561
2001 11 21.18701 02 27 27.54 +12 33 51.5 19.2   704 – Lincoln Laboratory ETS, New Mexico MPS 49561
2001 11 21.20163 02 27 26.70 +12 33 50.6 19.3   704 – Lincoln Laboratory ETS, New Mexico MPS 49561
2001 11 21.21640 02 27 25.84 +12 33 50.6 19.4   704 – Lincoln Laboratory ETS, New Mexico MPS 49561
2001 12 11.21337 02 15 46.03 +12 50 05.4 19.7   704 – Lincoln Laboratory ETS, New Mexico MPS 44199
2001 12 11.22859 02 15 45.76 +12 50 06.9 20.6   704 – Lincoln Laboratory ETS, New Mexico MPS 44199
2001 12 11.24383 02 15 45.50 +12 50 08.7 20.7   704 – Lincoln Laboratory ETS, New Mexico MPS 44199
2001 12 11.27430 02 15 45.01 +12 50 12.6 20.1   704 – Lincoln Laboratory ETS, New Mexico MPS 44199
2003 02 28.31616 10 59 12.97 +16 08 56.9 19.8   704 – Lincoln Laboratory ETS, New Mexico MPS 112136
2003 02 28.33085 10 59 12.02 +16 09 02.8 19.8   704 – Lincoln Laboratory ETS, New Mexico MPS 112136
2003 02 28.34504 10 59 11.19 +16 09 07.6 19.9   704 – Lincoln Laboratory ETS, New Mexico MPS 112136
2004 08 08.30097 23 00 47.23 -19 15 12.5 18.7   704 – Lincoln Laboratory ETS, New Mexico MPS 112136
2004 08 08.31038 23 00 46.88 -19 15 15.8 19.2   704 – Lincoln Laboratory ETS, New Mexico MPS 112136
2004 08 08.31981 23 00 46.54 -19 15 20.0 19.6   704 – Lincoln Laboratory ETS, New Mexico MPS 112136
2004 08 08.32930 23 00 46.27 -19 15 24.0 19.4   704 – Lincoln Laboratory ETS, New Mexico MPS 112136
2004 08 19.54902 22 53 09.37 -20 24 31.5 18.0 V 428 – Reedy Creek MPS 112136
2004 08 19.58531 22 53 07.44 -20 24 43.9 18.2 V 428 – Reedy Creek MPS 112136
2004 08 20.68597 22 52 12.12 -20 30 58.6 18.0 V 428 – Reedy Creek MPS 112136
2004 08 20.69986 22 52 11.41 -20 31 02.8 18.0 V 428 – Reedy Creek MPS 112136
2004 08 21.65829 22 51 22.73 -20 36 20.5 17.9 R E12 – Siding Spring Survey MPS 112136
2004 08 21.66957 22 51 22.10 -20 36 24.1 17.7 R E12 – Siding Spring Survey MPS 112136
2004 08 21.68088 22 51 21.47 -20 36 27.5 17.7 R E12 – Siding Spring Survey MPS 112136
2004 08 21.69216 22 51 20.85 -20 36 31.3 17.7 R E12 – Siding Spring Survey MPS 112136
2004 08 23.26967 22 49 59.02 -20 45 05.8 17.4 R 699 – Lowell Observatory-LONEOS MPS 112136
2004 08 23.28425 22 49 58.17 -20 45 11.1   699 – Lowell Observatory-LONEOS MPS 112136
2004 08 23.29884 22 49 57.36 -20 45 15.4   699 – Lowell Observatory-LONEOS MPS 112136
2004 08 23.31341 22 49 56.55 -20 45 20.3   699 – Lowell Observatory-LONEOS MPS 112136
